Location: Unspecified
(42.2600°N, 0.0000°E)
Time: 02:17:38
(UTC+00:00)

OTV 5 (USA 277) - Visible Passes

Search period start: 15 October 2019 00:00
Search period end: 25 October 2019 00:00
Orbit: 310 x 324 km, 54.5° (Epoch: 08 October)

Date Brightness Start Highest point End Pass type
(mag) Time Alt. Az. Time Alt. Az. Time Alt. Az.
15 Oct ? 05:25:13 10° NNW 05:27:08 17° NNE 05:29:02 10° ENE visible
16 Oct ? 05:39:22 10° NNW 05:41:53 32° NNE 05:44:24 10° E visible
17 Oct ? 04:21:37 13° NNE 04:21:48 13° NNE 04:23:14 10° NE visible
18 Oct ? 04:36:01 21° N 04:36:38 22° NNE 04:38:53 10° E visible
19 Oct ? 04:50:31 34° NNW 04:51:20 50° NE 04:53:59 10° ESE visible
20 Oct ? 05:05:08 37° W 05:05:52 53° SW 05:08:33 10° SE visible
21 Oct ? 05:19:54 18° WSW 05:20:17 19° SW 05:22:18 10° S visible
